| time (UTC) | temp F | wind direction | speed MPH | gust MPH | rain 1hr in | rain 24hr in | rain mn in | humidity % | barometer mb |
| 20260906183058 | 80 | 264 | 1.0 | 1.0 | 0.00 | 0.00 | 0.00 | 76 | 1014.9 |
| 20260906182552 | 78 | 87 | 1.0 | 1.0 | 0.00 | 0.00 | 0.00 | 81 | 1014.8 |
| 20260906182049 | 78 | 91 | 1.0 | 1.0 | 0.00 | 0.00 | 0.00 | 79 | 1015.0 |
| 20260906181544 | 78 | 151 | 1.0 | 1.0 | 0.00 | 0.00 | 0.00 | 79 | 1015.0 |
| 20260906181039 | 78 | 127 | 1.0 | 2.0 | 0.00 | 0.00 | 0.00 | 77 | 1014.9 |
| 20260906180533 | 79 | 88 | 3.0 | 4.0 | 0.00 | 0.00 | 0.00 | 79 | 1015.0 |
| 20260906180032 | 79 | 81 | 2.0 | 3.0 | 0.00 | 0.00 | 0.00 | 77 | 1015.3 |
| 20260906175527 | 78 | 74 | 2.0 | 4.0 | 0.00 | 0.00 | 0.00 | 81 | 1015.3 |
| 20260906175026 | 77 | 117 | 0.0 | 0.0 | 0.00 | 0.00 | 0.00 | 83 | 1015.4 |
| 20260906174524 | 77 | 197 | 0.0 | 0.0 | 0.00 | 0.00 | 0.00 | 83 | 1015.5 |
| 20260906174020 | 78 | 83 | 0.0 | 0.0 | 0.00 | 0.00 | 0.00 | 83 | 1015.6 |
| 20260906173514 | 77 | 303 | 0.0 | 0.0 | 0.00 | 0.00 | 0.00 | 81 | 1015.7 |
| 20260906173010 | 77 | 27 | 0.0 | 1.0 | 0.00 | 0.00 | 0.00 | 81 | 1015.7 |
| 20260906172459 | 78 | 57 | 1.0 | 1.0 | 0.00 | 0.00 | 0.00 | 78 | 1015.8 |
| 20260906171954 | 78 | 158 | 0.0 | 1.0 | 0.00 | 0.00 | 0.00 | 81 | 1016.0 |
| 20260906171449 | 78 | 68 | 0.0 | 0.0 | 0.00 | 0.00 | 0.00 | 79 | 1016.0 |
| 20260906170945 | 80 | 186 | 0.0 | 1.0 | 0.00 | 0.00 | 0.00 | 78 | 1016.0 |
| 20260906170441 | 80 | 210 | 0.0 | 0.0 | 0.00 | 0.00 | 0.00 | 77 | 1016.1 |
| 20260906165937 | 79 | 98 | 2.0 | 2.0 | 0.00 | 0.00 | 0.00 | 79 | 1016.1 |
| 20260906165436 | 79 | 68 | 2.0 | 2.0 | 0.00 | 0.00 | 0.00 | 78 | 1016.1 |
| 20260906164931 | 77 | 48 | 0.0 | 0.0 | 0.00 | 0.00 | 0.00 | 80 | 1015.9 |
| 20260906164430 | 78 | 87 | 3.0 | 3.0 | 0.00 | 0.00 | 0.00 | 81 | 1015.8 |
| 20260906163926 | 78 | 56 | 0.0 | 0.0 | 0.00 | 0.00 | 0.00 | 80 | 1016.1 |
| 20260906163422 | 78 | 92 | 1.0 | 1.0 | 0.00 | 0.00 | 0.00 | 81 | 1016.3 |
| 20260906162920 | 77 | 57 | 0.0 | 1.0 | 0.00 | 0.00 | 0.00 | 81 | 1016.0 |
| 20260906162414 | 77 | 83 | 1.0 | 1.0 | 0.00 | 0.00 | 0.00 | 82 | 1016.0 |
| 20260906161909 | 76 | 300 | 0.0 | 1.0 | 0.00 | 0.00 | 0.00 | 83 | 1016.0 |
| 20260906161408 | 76 | 236 | 0.0 | 0.0 | 0.00 | 0.00 | 0.00 | 85 | 1016.0 |
| 20260906160907 | 77 | 94 | 0.0 | 0.0 | 0.00 | 0.00 | 0.00 | 85 | 1015.9 |
| 20260906160401 | 76 | 221 | 0.0 | 0.0 | 0.00 | 0.00 | 0.00 | 85 | 1015.8 |
| 20260906155859 | 76 | 180 | 0.0 | 0.0 | 0.00 | 0.00 | 0.00 | 83 | 1015.8 |
| 20260906155353 | 76 | 90 | 0.0 | 1.0 | 0.00 | 0.00 | 0.00 | 81 | 1015.7 |
| 20260906154850 | 76 | 262 | 0.0 | 0.0 | 0.00 | 0.00 | 0.00 | 80 | 1015.8 |
| 20260906154349 | 77 | 309 | 0.0 | 0.0 | 0.00 | 0.00 | 0.00 | 80 | 1015.8 |
| 20260906153847 | 76 | 79 | 1.0 | 1.0 | 0.00 | 0.00 | 0.00 | 82 | 1015.9 |
| 20260906153341 | 76 | 103 | 1.0 | 1.0 | 0.00 | 0.00 | 0.00 | 81 | 1015.9 |
| 20260906152837 | 75 | 172 | 0.0 | 0.0 | 0.00 | 0.00 | 0.00 | 82 | 1015.8 |
| 20260906152337 | 73 | 86 | 0.0 | 0.0 | 0.00 | 0.00 | 0.00 | 84 | 1015.8 |
| 20260906151837 | 74 | 150 | 0.0 | 0.0 | 0.00 | 0.00 | 0.00 | 84 | 1015.9 |
| 20260906151332 | 73 | 75 | 0.0 | 1.0 | 0.00 | 0.00 | 0.00 | 83 | 1015.8 |
| 20260906150827 | 73 | 230 | 0.0 | 0.0 | 0.00 | 0.00 | 0.00 | 84 | 1015.8 |
| 20260906150323 | 73 | 138 | 0.0 | 0.0 | 0.00 | 0.00 | 0.00 | 85 | 1015.9 |
| 20260906145822 | 73 | 122 | 0.0 | 0.0 | 0.00 | 0.00 | 0.00 | 84 | 1015.8 |
| 20260906145320 | 73 | 99 | 0.0 | 0.0 | 0.00 | 0.00 | 0.00 | 81 | 1015.9 |
| 20260906144816 | 71 | 109 | 0.0 | 0.0 | 0.00 | 0.00 | 0.00 | 86 | 1015.8 |
| 20260906144311 | 70 | 101 | 0.0 | 0.0 | 0.00 | 0.00 | 0.00 | 86 | 1015.7 |
| 20260906143810 | 70 | 131 | 0.0 | 1.0 | 0.00 | 0.00 | 0.00 | 87 | 1015.9 |
| 20260906143307 | 69 | 155 | 0.0 | 0.0 | 0.00 | 0.00 | 0.00 | 89 | 1015.4 |
| 20260906142803 | 68 | 79 | 0.0 | 1.0 | 0.00 | 0.00 | 0.00 | 88 | 1015.9 |
| 20260906142258 | 68 | 108 | 0.0 | 0.0 | 0.00 | 0.00 | 0.00 | 90 | 1015.7 |
| 20260906141756 | 66 | 111 | 0.0 | 0.0 | 0.00 | 0.00 | 0.00 | 91 | 1015.9 |
| 20260906141251 | 66 | 121 | 0.0 | 0.0 | 0.00 | 0.00 | 0.00 | 93 | 1016.0 |
| 20260906140749 | 65 | 85 | 0.0 | 0.0 | 0.00 | 0.00 | 0.00 | 93 | 1016.2 |
| 20260906140240 | 63 | 100 | 0.0 | 0.0 | 0.00 | 0.00 | 0.00 | 97 | 1016.1 |
| 20260906135737 | 62 | 121 | 0.0 | 0.0 | 0.00 | 0.00 | 0.00 | 98 | 1016.2 |
| 20260906135233 | 62 | 106 | 0.0 | 0.0 | 0.00 | 0.00 | 0.00 | 97 | 1016.2 |
| 20260906134728 | 62 | 88 | 0.0 | 0.0 | 0.00 | 0.00 | 0.00 | 97 | 1016.2 |
| 20260906134223 | 61 | 118 | 0.0 | 0.0 | 0.00 | 0.00 | 0.00 | 99 | 1016.2 |
| 20260906133719 | 61 | 118 | 0.0 | 0.0 | 0.00 | 0.00 | 0.00 | 99 | 1016.4 |
| 20260906133214 | 60 | 168 | 0.0 | 0.0 | 0.00 | 0.00 | 0.00 | 99 | 1016.4 |
| 20260906132709 | 60 | 135 | 0.0 | 0.0 | 0.00 | 0.00 | 0.00 | 99 | 1016.3 |
| 20260906132204 | 59 | 98 | 0.0 | 0.0 | 0.00 | 0.00 | 0.00 | 99 | 1016.2 |
| 20260906131659 | 60 | 82 | 1.0 | 1.0 | 0.00 | 0.00 | 0.00 | 99 | 1016.3 |
| 20260906131149 | 59 | 169 | 0.0 | 0.0 | 0.00 | 0.00 | 0.00 | 99 | 1016.3 |
| 20260906130644 | 59 | 169 | 0.0 | 0.0 | 0.00 | 0.00 | 0.00 | 99 | 1016.3 |
| 20260906130139 | 59 | 142 | 0.0 | 0.0 | 0.00 | 0.00 | 0.00 | 99 | 1016.1 |
| 20260906125636 | 59 | 145 | 0.0 | 0.0 | 0.00 | 0.00 | 0.00 | 99 | 1016.1 |
| 20260906125130 | 59 | 114 | 0.0 | 0.0 | 0.00 | 0.00 | 0.00 | 99 | 1015.6 |
| 20260906124626 | 59 | 88 | 0.0 | 0.0 | 0.00 | 0.00 | 0.00 | 99 | 1015.7 |
| 20260906124121 | 59 | 112 | 0.0 | 0.0 | 0.00 | 0.00 | 0.00 | 99 | 1015.8 |
| 20260906123620 | 58 | 79 | 0.0 | 0.0 | 0.00 | 0.00 | 0.00 | 99 | 1015.7 |
| 20260906123115 | 58 | 79 | 0.0 | 0.0 | 0.00 | 0.00 | 0.00 | 99 | 1015.7 |
| 20260906122614 | 58 | 79 | 0.0 | 0.0 | 0.00 | 0.00 | 0.00 | 99 | 1015.9 |
| 20260906122110 | 58 | 79 | 0.0 | 0.0 | 0.00 | 0.00 | 0.00 | 99 | 1015.7 |
| 20260906121606 | 58 | 79 | 0.0 | 0.0 | 0.00 | 0.00 | 0.00 | 99 | 1015.9 |
| 20260906121103 | 57 | 79 | 0.0 | 0.0 | 0.00 | 0.00 | 0.00 | 99 | 1015.7 |
| 20260906120557 | 58 | 79 | 0.0 | 0.0 | 0.00 | 0.00 | 0.00 | 99 | 1015.7 |
| 20260906120055 | 57 | 79 | 0.0 | 0.0 | 0.00 | 0.00 | 0.00 | 99 | 1015.5 |
| 20260906115554 | 57 | 79 | 0.0 | 0.0 | 0.00 | 0.00 | 0.00 | 99 | 1015.6 |
| 20260906115050 | 56 | 79 | 0.0 | 0.0 | 0.00 | 0.00 | 0.00 | 99 | 1015.5 |
| 20260906114544 | 56 | 79 | 0.0 | 0.0 | 0.00 | 0.00 | 0.00 | 99 | 1015.7 |
| 20260906114040 | 56 | 79 | 0.0 | 0.0 | 0.00 | 0.00 | 0.00 | 99 | 1015.4 |
| 20260906113538 | 56 | 8 | 0.0 | 0.0 | 0.00 | 0.00 | 0.00 | 99 | 1015.5 |
| 20260906113034 | 55 | 52 | 0.0 | 0.0 | 0.00 | 0.00 | 0.00 | 99 | 1015.5 |
| 20260906112529 | 56 | 25 | 0.0 | 0.0 | 0.00 | 0.00 | 0.00 | 99 | 1015.4 |
| 20260906112025 | 56 | 1 | 0.0 | 0.0 | 0.00 | 0.00 | 0.00 | 99 | 1015.5 |
| 20260906111524 | 57 | 346 | 0.0 | 0.0 | 0.00 | 0.00 | 0.00 | 99 | 1015.7 |
| 20260906111020 | 57 | 344 | 0.0 | 0.0 | 0.00 | 0.00 | 0.00 | 99 | 1015.5 |
| 20260906110514 | 57 | 344 | 0.0 | 0.0 | 0.00 | 0.00 | 0.00 | 99 | 1015.6 |
| 20260906110013 | 57 | 344 | 0.0 | 0.0 | 0.00 | 0.00 | 0.00 | 99 | 1015.5 |
| 20260906105509 | 57 | 344 | 0.0 | 0.0 | 0.00 | 0.00 | 0.00 | 99 | 1015.0 |
| 20260906105004 | 57 | 344 | 0.0 | 0.0 | 0.00 | 0.00 | 0.00 | 99 | 1015.0 |
| 20260906104458 | 57 | 344 | 0.0 | 0.0 | 0.00 | 0.00 | 0.00 | 99 | 1014.6 |
| 20260906103957 | 57 | 91 | 0.0 | 0.0 | 0.00 | 0.00 | 0.00 | 99 | 1014.7 |
| 20260906103456 | 57 | 101 | 0.0 | 0.0 | 0.00 | 0.00 | 0.00 | 99 | 1014.7 |
| 20260906102951 | 58 | 108 | 0.0 | 0.0 | 0.00 | 0.00 | 0.00 | 99 | 1014.4 |
| 20260906102450 | 58 | 111 | 0.0 | 0.0 | 0.00 | 0.00 | 0.00 | 99 | 1014.4 |
| 20260906101944 | 58 | 114 | 0.0 | 0.0 | 0.00 | 0.00 | 0.00 | 99 | 1014.5 |
| 20260906101440 | 57 | 113 | 0.0 | 0.0 | 0.00 | 0.00 | 0.00 | 99 | 1014.5 |
| 20260906100935 | 58 | 117 | 0.0 | 0.0 | 0.00 | 0.00 | 0.00 | 99 | 1014.6 |
| 20260906100430 | 58 | 111 | 0.0 | 0.0 | 0.00 | 0.00 | 0.00 | 99 | 1014.5 |
| 20260906095930 | 57 | 106 | 0.0 | 0.0 | 0.00 | 0.00 | 0.00 | 99 | 1014.6 |
| 20260906095426 | 57 | 106 | 0.0 | 0.0 | 0.00 | 0.00 | 0.00 | 99 | 1014.6 |
| 20260906094926 | 56 | 100 | 0.0 | 0.0 | 0.00 | 0.00 | 0.00 | 99 | 1014.7 |
| 20260906094415 | 57 | 106 | 0.0 | 0.0 | 0.00 | 0.00 | 0.00 | 99 | 1014.6 |
| 20260906093911 | 56 | 106 | 0.0 | 0.0 | 0.00 | 0.00 | 0.00 | 99 | 1014.8 |
| 20260906093407 | 56 | 120 | 0.0 | 0.0 | 0.00 | 0.00 | 0.00 | 99 | 1014.7 |
| 20260906092901 | 56 | 122 | 0.0 | 0.0 | 0.00 | 0.00 | 0.00 | 99 | 1015.0 |
| 20260906092400 | 56 | 37 | 0.0 | 0.0 | 0.00 | 0.00 | 0.00 | 99 | 1014.8 |
| 20260906091855 | 56 | 18 | 0.0 | 0.0 | 0.00 | 0.00 | 0.00 | 99 | 1015.0 |
| 20260906091352 | 57 | 18 | 0.0 | 0.0 | 0.00 | 0.00 | 0.00 | 99 | 1015.0 |
| 20260906090848 | 57 | 18 | 0.0 | 0.0 | 0.00 | 0.00 | 0.00 | 99 | 1014.8 |
| 20260906090347 | 57 | 16 | 0.0 | 0.0 | 0.00 | 0.00 | 0.00 | 99 | 1015.2 |
| 20260906085842 | 57 | 18 | 0.0 | 0.0 | 0.00 | 0.00 | 0.00 | 99 | 1014.9 |
| 20260906085336 | 57 | 16 | 0.0 | 0.0 | 0.00 | 0.00 | 0.00 | 99 | 1014.9 |
| 20260906084830 | 57 | 89 | 0.0 | 0.0 | 0.00 | 0.00 | 0.00 | 99 | 1015.0 |
| 20260906084330 | 58 | 154 | 0.0 | 0.0 | 0.00 | 0.00 | 0.00 | 99 | 1015.0 |
| 20260906083825 | 58 | 130 | 0.0 | 0.0 | 0.00 | 0.00 | 0.00 | 99 | 1014.6 |
| 20260906083320 | 58 | 92 | 0.0 | 0.0 | 0.00 | 0.00 | 0.00 | 99 | 1014.8 |
| 20260906082815 | 58 | 88 | 0.0 | 0.0 | 0.00 | 0.00 | 0.00 | 99 | 1015.0 |
| 20260906082310 | 58 | 88 | 0.0 | 0.0 | 0.00 | 0.00 | 0.00 | 99 | 1015.0 |
| 20260906081806 | 59 | 88 | 0.0 | 0.0 | 0.00 | 0.00 | 0.00 | 99 | 1014.9 |
| 20260906081302 | 58 | 87 | 0.0 | 0.0 | 0.00 | 0.00 | 0.00 | 99 | 1014.9 |
| 20260906080758 | 59 | 87 | 0.0 | 0.0 | 0.00 | 0.00 | 0.00 | 99 | 1014.9 |
| 20260906080253 | 59 | 87 | 0.0 | 0.0 | 0.00 | 0.00 | 0.00 | 99 | 1014.9 |
| 20260906075747 | 59 | 91 | 0.0 | 0.0 | 0.00 | 0.00 | 0.00 | 99 | 1014.9 |
| 20260906075242 | 59 | 94 | 0.0 | 0.0 | 0.00 | 0.00 | 0.00 | 99 | 1014.9 |
| 20260906074737 | 59 | 91 | 0.0 | 0.0 | 0.00 | 0.00 | 0.00 | 99 | 1014.8 |
| 20260906074236 | 59 | 87 | 0.0 | 0.0 | 0.00 | 0.00 | 0.00 | 99 | 1014.9 |
| 20260906073736 | 59 | 96 | 0.0 | 0.0 | 0.00 | 0.00 | 0.00 | 99 | 1014.9 |
| 20260906073231 | 59 | 94 | 0.0 | 0.0 | 0.00 | 0.00 | 0.00 | 99 | 1015.0 |
| 20260906072727 | 59 | 100 | 0.0 | 1.0 | 0.00 | 0.00 | 0.00 | 99 | 1015.2 |
| 20260906072222 | 59 | 64 | 0.0 | 0.0 | 0.00 | 0.00 | 0.00 | 99 | 1015.4 |
| 20260906071718 | 59 | 59 | 0.0 | 0.0 | 0.00 | 0.00 | 0.00 | 99 | 1015.6 |
| 20260906071218 | 60 | 60 | 0.0 | 0.0 | 0.00 | 0.00 | 0.00 | 99 | 1015.4 |
| 20260906070714 | 60 | 65 | 0.0 | 0.0 | 0.00 | 0.00 | 0.00 | 99 | 1015.6 |
| 20260906070210 | 60 | 96 | 0.0 | 0.0 | 0.00 | 0.00 | 0.00 | 99 | 1015.4 |
| 20260906065704 | 59 | 64 | 0.0 | 0.0 | 0.00 | 0.00 | 0.00 | 99 | 1015.5 |
| 20260906065159 | 59 | 28 | 0.0 | 0.0 | 0.00 | 0.00 | 0.00 | 99 | 1015.8 |
| 20260906064655 | 60 | 50 | 0.0 | 0.0 | 0.00 | 0.00 | 0.00 | 99 | 1015.6 |
| 20260906064150 | 60 | 50 | 0.0 | 0.0 | 0.00 | 0.00 | 0.00 | 99 | 1015.6 |
| 20260906063645 | 60 | 50 | 0.0 | 0.0 | 0.00 | 0.00 | 0.00 | 99 | 1015.5 |
| 20260906063141 | 60 | 34 | 0.0 | 0.0 | 0.00 | 0.00 | 0.00 | 99 | 1015.6 |
| 20260906062637 | 60 | 19 | 0.0 | 0.0 | 0.00 | 0.00 | 0.00 | 99 | 1015.8 |
| 20260906062135 | 60 | 20 | 0.0 | 1.0 | 0.00 | 0.00 | 0.00 | 99 | 1015.8 |
| 20260906061631 | 60 | 60 | 0.0 | 0.0 | 0.00 | 0.00 | 0.00 | 99 | 1015.8 |
| 20260906061131 | 60 | 33 | 0.0 | 0.0 | 0.00 | 0.00 | 0.00 | 99 | 1016.1 |
| 20260906060627 | 61 | 33 | 0.0 | 0.0 | 0.00 | 0.00 | 0.00 | 99 | 1016.0 |
| 20260906060120 | 61 | 358 | 0.0 | 0.0 | 0.00 | 0.00 | 0.00 | 99 | 1016.0 |
| 20260906055615 | 61 | 356 | 0.0 | 0.0 | 0.00 | 0.00 | 0.00 | 99 | 1016.0 |
| 20260906055110 | 61 | 356 | 0.0 | 0.0 | 0.00 | 0.00 | 0.00 | 99 | 1015.9 |
| 20260906054610 | 62 | 32 | 0.0 | 0.0 | 0.00 | 0.00 | 0.00 | 99 | 1015.7 |
| 20260906054100 | 62 | 102 | 0.0 | 0.0 | 0.00 | 0.00 | 0.00 | 99 | 1015.7 |
| 20260906053556 | 62 | 102 | 0.0 | 0.0 | 0.00 | 0.00 | 0.00 | 99 | 1015.6 |
| 20260906053052 | 62 | 102 | 0.0 | 0.0 | 0.00 | 0.00 | 0.00 | 99 | 1015.7 |
| 20260906052547 | 62 | 99 | 0.0 | 0.0 | 0.00 | 0.00 | 0.00 | 99 | 1015.7 |
| 20260906052044 | 62 | 118 | 0.0 | 0.0 | 0.00 | 0.00 | 0.00 | 99 | 1015.9 |
| 20260906051539 | 62 | 120 | 0.0 | 0.0 | 0.00 | 0.00 | 0.00 | 99 | 1015.8 |
| 20260906051034 | 62 | 102 | 0.0 | 0.0 | 0.00 | 0.00 | 0.00 | 99 | 1015.6 |
| 20260906050529 | 63 | 116 | 0.0 | 0.0 | 0.00 | 0.00 | 0.00 | 99 | 1015.8 |
| 20260906050024 | 63 | 119 | 0.0 | 0.0 | 0.00 | 0.01 | 0.01 | 99 | 1015.5 |
| 20260906045522 | 63 | 119 | 0.0 | 0.0 | 0.00 | 0.01 | 0.01 | 99 | 1015.5 |
| 20260906045019 | 63 | 125 | 0.0 | 0.0 | 0.00 | 0.01 | 0.01 | 99 | 1015.3 |
| 20260906044514 | 63 | 127 | 1.0 | 1.0 | 0.00 | 0.01 | 0.01 | 99 | 1015.2 |
| 20260906044010 | 63 | 100 | 1.0 | 1.0 | 0.00 | 0.01 | 0.01 | 99 | 1015.4 |
| 20260906043505 | 63 | 121 | 1.0 | 1.0 | 0.00 | 0.01 | 0.01 | 99 | 1015.4 |
| 20260906043001 | 63 | 110 | 1.0 | 1.0 | 0.00 | 0.01 | 0.01 | 99 | 1015.5 |
| 20260906042500 | 63 | 125 | 1.0 | 1.0 | 0.00 | 0.01 | 0.01 | 99 | 1015.7 |
| 20260906041959 | 63 | 119 | 1.0 | 1.0 | 0.00 | 0.01 | 0.01 | 99 | 1015.7 |
| 20260906041456 | 63 | 80 | 0.0 | 0.0 | 0.00 | 0.01 | 0.01 | 99 | 1015.7 |
| 20260906040955 | 63 | 87 | 0.0 | 0.0 | 0.00 | 0.01 | 0.01 | 99 | 1015.6 |
| 20260906040450 | 63 | 113 | 0.0 | 0.0 | 0.00 | 0.01 | 0.01 | 99 | 1015.6 |
| 20260906035940 | 63 | 92 | 1.0 | 1.0 | 0.00 | 0.01 | 0.01 | 99 | 1015.6 |
| 20260906035435 | 63 | 101 | 0.0 | 0.0 | 0.00 | 0.01 | 0.01 | 99 | 1015.8 |
| 20260906034930 | 63 | 98 | 0.0 | 0.0 | 0.00 | 0.01 | 0.01 | 99 | 1015.6 |
| 20260906034425 | 63 | 127 | 0.0 | 0.0 | 0.00 | 0.01 | 0.01 | 99 | 1015.5 |
| 20260906033920 | 62 | 119 | 0.0 | 0.0 | 0.00 | 0.01 | 0.01 | 99 | 1015.7 |
| 20260906033415 | 62 | 125 | 0.0 | 0.0 | 0.00 | 0.01 | 0.01 | 99 | 1015.8 |
| 20260906032911 | 63 | 136 | 0.0 | 0.0 | 0.00 | 0.01 | 0.01 | 99 | 1015.7 |
| 20260906032407 | 63 | 106 | 0.0 | 0.0 | 0.00 | 0.01 | 0.01 | 99 | 1015.9 |
| 20260906031906 | 63 | 117 | 0.0 | 0.0 | 0.00 | 0.01 | 0.01 | 99 | 1015.9 |
| 20260906031402 | 63 | 114 | 0.0 | 0.0 | 0.00 | 0.01 | 0.01 | 99 | 1015.8 |
| 20260906030852 | 63 | 118 | 0.0 | 0.0 | 0.00 | 0.01 | 0.01 | 99 | 1015.7 |
| 20260906030346 | 63 | 120 | 0.0 | 0.0 | 0.00 | 0.01 | 0.01 | 99 | 1015.6 |
| 20260906025841 | 63 | 106 | 0.0 | 0.0 | 0.00 | 0.01 | 0.01 | 99 | 1015.5 |
| 20260906025335 | 63 | 106 | 0.0 | 0.0 | 0.00 | 0.01 | 0.01 | 99 | 1015.7 |
| 20260906024834 | 63 | 112 | 0.0 | 0.0 | 0.00 | 0.01 | 0.01 | 99 | 1015.7 |
| 20260906024333 | 63 | 76 | 0.0 | 0.0 | 0.00 | 0.01 | 0.01 | 99 | 1015.6 |
| 20260906023829 | 62 | 75 | 0.0 | 0.0 | 0.00 | 0.01 | 0.01 | 99 | 1015.6 |
| 20260906023324 | 62 | 72 | 0.0 | 0.0 | 0.00 | 0.01 | 0.01 | 99 | 1015.4 |
| 20260906022819 | 63 | 33 | 0.0 | 0.0 | 0.00 | 0.01 | 0.01 | 99 | 1015.7 |
| 20260906022314 | 63 | 18 | 0.0 | 0.0 | 0.00 | 0.01 | 0.01 | 99 | 1015.5 |
| 20260906021810 | 63 | 335 | 0.0 | 0.0 | 0.00 | 0.01 | 0.01 | 99 | 1015.3 |
| 20260906021309 | 63 | 346 | 0.0 | 0.0 | 0.00 | 0.01 | 0.01 | 99 | 1015.0 |
| 20260906020804 | 63 | 346 | 0.0 | 0.0 | 0.00 | 0.01 | 0.01 | 99 | 1014.7 |
| 20260906020258 | 63 | 346 | 0.0 | 0.0 | 0.00 | 0.01 | 0.01 | 99 | 1014.7 |
| 20260906015753 | 63 | 346 | 0.0 | 0.0 | 0.00 | 0.01 | 0.01 | 99 | 1014.5 |
| 20260906015251 | 63 | 346 | 0.0 | 0.0 | 0.00 | 0.01 | 0.01 | 99 | 1014.6 |
| 20260906014746 | 63 | 341 | 0.0 | 0.0 | 0.00 | 0.01 | 0.01 | 99 | 1014.4 |
| 20260906014242 | 63 | 324 | 0.0 | 0.0 | 0.00 | 0.01 | 0.01 | 99 | 1014.5 |
| 20260906013738 | 63 | 19 | 0.0 | 0.0 | 0.00 | 0.01 | 0.01 | 99 | 1014.2 |
| 20260906013237 | 64 | 22 | 0.0 | 0.0 | 0.00 | 0.01 | 0.01 | 99 | 1014.3 |
| 20260906012733 | 64 | 7 | 0.0 | 0.0 | 0.00 | 0.01 | 0.01 | 99 | 1014.1 |
| 20260906012228 | 64 | 8 | 0.0 | 0.0 | 0.00 | 0.01 | 0.01 | 99 | 1014.2 |
| 20260906011723 | 65 | 7 | 0.0 | 0.0 | 0.00 | 0.01 | 0.01 | 99 | 1014.2 |
| 20260906011222 | 65 | 5 | 0.0 | 0.0 | 0.00 | 0.01 | 0.01 | 99 | 1014.0 |
| 20260906010719 | 65 | 100 | 0.0 | 0.0 | 0.00 | 0.01 | 0.01 | 98 | 1014.0 |
| 20260906010215 | 66 | 100 | 0.0 | 0.0 | 0.00 | 0.01 | 0.01 | 98 | 1014.0 |
| 20260906005714 | 66 | 101 | 0.0 | 0.0 | 0.00 | 0.01 | 0.01 | 98 | 1014.0 |
| 20260906005208 | 66 | 111 | 0.0 | 0.0 | 0.00 | 0.01 | 0.01 | 98 | 1013.9 |
| 20260906004707 | 66 | 103 | 0.0 | 0.0 | 0.00 | 0.01 | 0.01 | 98 | 1014.0 |
| 20260906004202 | 66 | 99 | 0.0 | 0.0 | 0.00 | 0.01 | 0.01 | 98 | 1014.0 |
| 20260906003652 | 67 | 99 | 0.0 | 0.0 | 0.00 | 0.01 | 0.01 | 97 | 1014.1 |
| 20260906003147 | 67 | 99 | 0.0 | 0.0 | 0.00 | 0.01 | 0.01 | 97 | 1013.9 |
| 20260906002641 | 67 | 98 | 0.0 | 0.0 | 0.00 | 0.01 | 0.01 | 97 | 1013.9 |
| 20260906002136 | 67 | 97 | 0.0 | 0.0 | 0.00 | 0.01 | 0.01 | 97 | 1013.9 |
| 20260906001632 | 67 | 105 | 0.0 | 0.0 | 0.00 | 0.01 | 0.01 | 96 | 1014.1 |
| 20260906001131 | 68 | 105 | 0.0 | 0.0 | 0.00 | 0.01 | 0.01 | 95 | 1014.0 |
| 20260906000627 | 68 | 106 | 0.0 | 0.0 | 0.00 | 0.01 | 0.01 | 95 | 1014.1 |
| 20260906000123 | 68 | 107 | 0.0 | 1.0 | 0.00 | 0.01 | 0.01 | 94 | 1013.8 |
| 20260905235621 | 68 | 135 | 0.0 | 0.0 | 0.00 | 0.01 | 0.01 | 93 | 1014.1 |
| 20260905235117 | 69 | 139 | 0.0 | 0.0 | 0.00 | 0.01 | 0.01 | 92 | 1014.3 |
| 20260905234612 | 69 | 130 | 0.0 | 1.0 | 0.00 | 0.01 | 0.01 | 91 | 1014.2 |
| 20260905234108 | 69 | 101 | 2.0 | 2.0 | 0.00 | 0.01 | 0.01 | 90 | 1014.2 |
| 20260905233607 | 70 | 87 | 1.0 | 1.0 | 0.00 | 0.01 | 0.01 | 89 | 1014.2 |
| 20260905233102 | 70 | 91 | 1.0 | 1.0 | 0.00 | 0.01 | 0.01 | 90 | 1014.2 |
| 20260905232557 | 70 | 136 | 0.0 | 0.0 | 0.00 | 0.01 | 0.01 | 89 | 1014.4 |
| 20260905232053 | 70 | 111 | 1.0 | 1.0 | 0.00 | 0.01 | 0.01 | 88 | 1014.4 |
| 20260905231548 | 69 | 103 | 1.0 | 1.0 | 0.00 | 0.01 | 0.01 | 89 | 1014.5 |
| 20260905231044 | 70 | 152 | 0.0 | 0.0 | 0.00 | 0.01 | 0.01 | 90 | 1014.4 |
| 20260905230543 | 70 | 139 | 0.0 | 1.0 | 0.00 | 0.01 | 0.01 | 88 | 1014.4 |
| 20260905230042 | 70 | 91 | 1.0 | 2.0 | 0.00 | 0.01 | 0.01 | 89 | 1014.2 |
| 20260905225537 | 70 | 91 | 1.0 | 1.0 | 0.00 | 0.01 | 0.01 | 88 | 1014.0 |
| 20260905225032 | 69 | 101 | 0.0 | 0.0 | 0.00 | 0.01 | 0.01 | 89 | 1013.8 |
| 20260905224527 | 69 | 23 | 1.0 | 1.0 | 0.00 | 0.01 | 0.01 | 90 | 1013.6 |
| 20260905224026 | 69 | 81 | 1.0 | 2.0 | 0.00 | 0.01 | 0.01 | 90 | 1013.6 |
| 20260905223525 | 69 | 139 | 1.0 | 1.0 | 0.00 | 0.01 | 0.01 | 90 | 1013.8 |
| 20260905223020 | 69 | 124 | 1.0 | 1.0 | 0.00 | 0.01 | 0.01 | 90 | 1013.9 |
| 20260905222520 | 69 | 132 | 0.0 | 1.0 | 0.00 | 0.01 | 0.01 | 90 | 1014.0 |
| 20260905222015 | 68 | 98 | 1.0 | 2.0 | 0.00 | 0.01 | 0.01 | 90 | 1014.0 |
| 20260905221511 | 69 | 133 | 1.0 | 1.0 | 0.00 | 0.01 | 0.01 | 90 | 1014.1 |
| 20260905221007 | 68 | 129 | 1.0 | 1.0 | 0.00 | 0.01 | 0.01 | 90 | 1014.3 |
| 20260905220503 | 69 | 82 | 2.0 | 2.0 | 0.00 | 0.01 | 0.01 | 91 | 1014.1 |
| 20260905220002 | 69 | 102 | 2.0 | 2.0 | 0.00 | 0.01 | 0.01 | 89 | 1014.2 |
| 20260905215457 | 69 | 67 | 2.0 | 3.0 | 0.00 | 0.01 | 0.01 | 88 | 1014.3 |
| 20260905214954 | 69 | 79 | 0.0 | 1.0 | 0.00 | 0.01 | 0.01 | 90 | 1014.5 |
| 20260905214449 | 68 | 90 | 0.0 | 1.0 | 0.00 | 0.01 | 0.01 | 90 | 1014.5 |
| 20260905213943 | 68 | 92 | 2.0 | 2.0 | 0.00 | 0.01 | 0.01 | 90 | 1014.5 |
| 20260905213439 | 69 | 59 | 1.0 | 2.0 | 0.00 | 0.01 | 0.01 | 89 | 1014.8 |
| 20260905212934 | 69 | 88 | 3.0 | 3.0 | 0.00 | 0.01 | 0.01 | 88 | 1014.6 |
| 20260905212429 | 68 | 83 | 1.0 | 2.0 | 0.00 | 0.01 | 0.01 | 89 | 1014.4 |
| 20260905211928 | 68 | 127 | 1.0 | 1.0 | 0.00 | 0.01 | 0.01 | 91 | 1014.6 |
| 20260905211424 | 68 | 102 | 0.0 | 1.0 | 0.00 | 0.01 | 0.01 | 91 | 1015.0 |
| 20260905210920 | 68 | 130 | 1.0 | 1.0 | 0.00 | 0.01 | 0.01 | 90 | 1015.0 |
| 20260905210415 | 69 | 107 | 1.0 | 1.0 | 0.00 | 0.01 | 0.01 | 90 | 1015.2 |
| 20260905205914 | 69 | 150 | 0.0 | 0.0 | 0.00 | 0.01 | 0.01 | 89 | 1015.4 |
| 20260905205409 | 69 | 81 | 0.0 | 0.0 | 0.00 | 0.01 | 0.01 | 88 | 1015.6 |
| 20260905204907 | 69 | 5 | 1.0 | 1.0 | 0.00 | 0.01 | 0.01 | 88 | 1015.5 |
| 20260905204404 | 68 | 21 | 0.0 | 0.0 | 0.00 | 0.01 | 0.01 | 89 | 1015.6 |
| 20260905203903 | 68 | 102 | 0.0 | 0.0 | 0.00 | 0.01 | 0.01 | 88 | 1015.7 |
| 20260905203358 | 69 | 104 | 1.0 | 1.0 | 0.00 | 0.01 | 0.01 | 88 | 1015.7 |
| 20260905202848 | 69 | 28 | 0.0 | 0.0 | 0.00 | 0.01 | 0.01 | 89 | 1015.8 |
| 20260905202342 | 69 | 22 | 0.0 | 0.0 | 0.00 | 0.01 | 0.01 | 91 | 1015.8 |
| 20260905201838 | 68 | 7 | 0.0 | 0.0 | 0.00 | 0.01 | 0.01 | 91 | 1015.8 |
| 20260905201334 | 68 | 317 | 0.0 | 0.0 | 0.00 | 0.01 | 0.01 | 90 | 1016.0 |
| 20260905200828 | 69 | 340 | 0.0 | 0.0 | 0.00 | 0.01 | 0.01 | 90 | 1016.3 |
| 20260905200326 | 68 | 21 | 0.0 | 1.0 | 0.00 | 0.01 | 0.01 | 90 | 1016.2 |
| 20260905195822 | 68 | 334 | 0.0 | 0.0 | 0.00 | 0.01 | 0.01 | 90 | 1016.1 |
| 20260905195317 | 68 | 294 | 0.0 | 0.0 | 0.00 | 0.01 | 0.01 | 91 | 1016.1 |
| 20260905194813 | 68 | 293 | 0.0 | 0.0 | 0.00 | 0.01 | 0.01 | 93 | 1016.3 |
| 20260905194312 | 68 | 293 | 0.0 | 0.0 | 0.00 | 0.01 | 0.01 | 92 | 1016.1 |
| 20260905193811 | 68 | 305 | 0.0 | 0.0 | 0.00 | 0.01 | 0.01 | 92 | 1016.1 |
| 20260905193307 | 68 | 41 | 0.0 | 0.0 | 0.00 | 0.01 | 0.01 | 91 | 1016.1 |
| 20260905192802 | 68 | 341 | 0.0 | 1.0 | 0.00 | 0.01 | 0.01 | 91 | 1016.0 |
| 20260905192258 | 68 | 113 | 0.0 | 0.0 | 0.00 | 0.01 | 0.01 | 93 | 1016.1 |
| 20260905191757 | 68 | 86 | 0.0 | 0.0 | 0.00 | 0.01 | 0.01 | 91 | 1016.2 |
| 20260905191255 | 68 | 68 | 0.0 | 0.0 | 0.00 | 0.01 | 0.01 | 93 | 1016.2 |
| 20260905190755 | 68 | 69 | 0.0 | 0.0 | 0.00 | 0.01 | 0.01 | 93 | 1016.4 |
| 20260905190249 | 68 | 143 | 0.0 | 0.0 | 0.00 | 0.01 | 0.01 | 92 | 1016.3 |
| 20260905185747 | 68 | 140 | 0.0 | 0.0 | 0.00 | 0.01 | 0.01 | 94 | 1016.2 |
| 20260905185243 | 67 | 73 | 0.0 | 1.0 | 0.00 | 0.01 | 0.01 | 96 | 1016.3 |
| 20260905184737 | 67 | 76 | 0.0 | 0.0 | 0.00 | 0.01 | 0.01 | 95 | 1016.3 |
| 20260905184236 | 67 | 88 | 0.0 | 0.0 | 0.00 | 0.01 | 0.01 | 94 | 1016.2 |
| 20260905183735 | 67 | 43 | 0.0 | 0.0 | 0.00 | 0.01 | 0.01 | 95 | 1016.2 |